Regional Weather Roundup
Issued by NWS

Home | Current Version | Previous Version | Text Only | Print | Product List | Glossary On
Versions: 1 2 3 4 5 6 7 8 9 10 11 12 13 14 15 16 17 18 19 20 21 22 23 24 25 26 27 28
000
ASUS45 KREV 062110
RWRNV
NEVADA REGIONAL WEATHER ROUNDUP
NATIONAL WEATHER SERVICE RENO NV
200 PM PDT FRI MAY 06 2016

NOTE: "FAIR" INDICATES FEW OR NO CLOUDS BELOW 12,000 FEET WITH NO
SIGNIFICANT WEATHER AND/OR OBSTRUCTIONS TO VISIBILITY.

NVZ001-003-004-062200-
WESTERN NEVADA

CITY           SKY/WX    TMP DP  RH WIND       PRES   REMARKS
RENO           PTSUNNY   61  37  41 VRB3      29.82F
CARSON CITY    PTSUNNY   59  41  51 NW5       29.84F
MINDEN         FAIR      55  41  58 W7        29.85F
PYRAMID LAKE     N/A     55 N/A N/A N9          N/A
FALLON         PTSUNNY   62  37  39 CALM      29.81S
LOVELOCK       PTSUNNY   65  37  35 VRB3      29.78F
$$

NVZ002-CAZ072-073-062200-
NORTHERN AND CENTRAL SIERRA

CITY           SKY/WX    TMP DP  RH WIND       PRES   REMARKS
S. LAKE TAHOE  PTSUNNY   50  34  54 VRB5      29.86F
TRUCKEE        PTSUNNY   54  36  50 SE8       29.87F
SQUAW VLY 8000   N/A     39  32  75 SE3         N/A
BLUE CANYON    FOG       45  44  97 SW6       29.89S VSB 1/4
MAMMOTH LAKES  FAIR      53  25  33 E12G22    29.86S
BRIDGEPORT     FAIR      52  32  46 VRB6      29.84F
$$

NVZ030-031-036-062200-
NORTHERN NEVADA

CITY           SKY/WX    TMP DP  RH WIND       PRES   REMARKS
ELKO           TSTM      64  38  38 E10G21    29.76R
WINNEMUCCA     CLOUDY    60  44  55 N17       29.78F
WENDOVER       CLOUDY    64  37  36 NE21G28   29.79R
$$

NVZ035-037-062200-
CENTRAL NEVADA

CITY           SKY/WX    TMP DP  RH WIND       PRES   REMARKS
ELY            PTSUNNY   58  27  30 SE10      29.82S
EUREKA           N/A     55  35  47 N10       29.82S
$$

NVZ013-014-062200-
SOUTH CENTRAL NEVADA

CITY           SKY/WX    TMP DP  RH WIND       PRES   REMARKS
TONOPAH        LGT RAIN  42  39  89 S25       29.92R
$$

NVZ017-020-022-062200-
SOUTHERN NEVADA

CITY           SKY/WX    TMP DP  RH WIND       PRES   REMARKS
LAS VEGAS      CLOUDY    67  39  35 E10       29.76R THUNDER
N. LAS VEGAS   CLOUDY    66  41  40 CALM      29.79F
NELLIS AFB     MOSUNNY   66  42  42 NE12      29.79S
HENDERSON      LGT RAIN  63  40  42 SE12      29.81S
MERCURY        PTSUNNY   65  35  33 VRB7      29.79F
$$




USA.gov is the U.S. government's official web portal to all federal, state and local government web resources and services.